Date String (YYYY-MM-DD hh:mm:ss) UTC,Instrument flags,absolute air pressure of the measurement (hPa),sample flow rate (lpm),inlet stack bypass flow (lpm),air temperature of the measurement (°C),ambient temperature measured by the external sensor (°C),aerosol sample conditioner tube jacket temperature (°C),OPC LED temperature (°C),internal box temperature (°C),relative humidity of the measurement (%),span deviation,mass concentration of particles derived from Lorenz-Mie calculation of OPC scattering (μg/m³),mass concentration of particles derived from Lorenz-Mie calculation of OPC scattering (μg/m³),mass concentration of particles derived from Lorenz-Mie calculation of OPC scattering (μg/m³)
DateTimeUTC,F1_M11,P_M11,Q1_M11,Q2_M11,T1_M11,T2_M11,T3_M11,T4_M11,T5_M11,U1_M11,ZSPAN_M11,X2_M11,X0_M11,X1_M11
2024-04-23 08:00:00,SystemResetWarning,0826.4,5.01,000.00,026.5,025.7,000.0,035.0,028.3,016.8,0000.0,0004.43,0014.00,0003.35
2024-04-23 08:01:00,SystemResetWarning,0826.4,5.01,000.00,026.5,025.7,000.0,035.0,028.3,016.9,0000.0,0004.42,0013.68,0003.29
2024-04-23 08:02:00,SystemResetWarning,0826.5,4.99,000.00,026.5,025.7,000.0,035.0,028.3,017.0,0000.0,0004.48,0013.34,0003.26
2024-04-23 08:03:00,SystemResetWarning,0826.4,4.99,000.00,026.5,025.7,000.0,035.0,028.3,017.0,0000.0,0004.52,0013.79,0003.23
2024-04-23 08:04:00,SystemResetWarning,0826.6,5.00,000.00,026.5,025.7,000.0,035.0,028.3,017.0,0000.0,0004.52,0013.99,0003.20
2024-04-23 08:05:00,SystemResetWarning,0826.6,5.01,000.00,026.5,025.7,000.0,035.0,028.3,017.2,0000.0,0004.57,0015.45,0003.18
2024-04-23 08:06:00,SystemResetWarning,0826.6,5.01,000.00,026.5,025.6,000.0,035.0,028.3,017.1,0000.0,0004.54,0015.92,0003.14
2024-04-23 08:07:00,SystemResetWarning,0826.6,4.99,000.00,026.5,025.6,000.0,035.0,028.2,016.9,0000.0,0004.50,0016.48,0003.06
2024-04-23 08:08:00,SystemResetWarning,0826.6,4.99,000.00,026.4,025.6,000.0,035.0,028.2,016.9,0000.0,0004.50,0018.18,0002.93
2024-04-23 08:09:00,SystemResetWarning,0826.6,5.00,000.00,026.4,025.6,000.0,035.0,028.2,016.8,0000.0,0004.49,0018.41,0002.82
2024-04-23 08:10:00,SystemResetWarning,0826.8,5.01,000.00,026.4,025.6,000.0,035.0,028.2,016.9,0000.0,0004.55,0018.62,0002.75
2024-04-23 08:11:00,SystemResetWarning,0826.8,5.00,000.00,026.4,025.5,000.0,035.0,028.2,017.1,0000.0,0004.60,0017.68,0002.74
2024-04-23 08:12:00,SystemResetWarning,0826.9,5.00,000.00,026.4,025.5,000.0,035.0,028.2,017.0,0000.0,0004.62,0017.32,0002.73
2024-04-23 08:13:00,SystemResetWarning,0826.9,5.00,000.00,026.4,025.5,000.0,035.0,028.2,016.7,0000.0,0004.56,0017.19,0002.71
2024-04-23 08:14:00,SystemResetWarning,0827.0,4.99,000.00,026.4,025.5,000.0,035.0,028.2,016.4,0000.0,0004.54,0016.65,0002.68
2024-04-23 08:15:00,SystemResetWarning,0827.0,5.00,000.00,026.4,025.5,000.0,035.0,028.2,016.6,0000.0,0004.54,0016.73,0002.66
2024-04-23 08:16:00,SystemResetWarning,0827.0,5.00,000.00,026.4,025.5,000.0,035.0,028.2,016.5,0000.0,0004.49,0016.56,0002.60
2024-04-23 08:17:00,SystemResetWarning,0826.9,5.01,000.00,026.4,025.5,000.0,035.0,028.2,016.4,0000.0,0004.45,0016.42,0002.56
2024-04-23 08:18:00,SystemResetWarning,0827.0,5.01,000.00,026.4,025.5,000.0,035.0,028.2,016.2,0000.0,0004.43,0016.28,0002.52
2024-04-23 08:19:00,SystemResetWarning,0827.0,5.01,000.00,026.4,025.5,000.0,035.0,028.2,016.4,0000.0,0004.41,0014.70,0002.50
2024-04-23 08:20:00,SystemResetWarning,0827.1,5.00,000.00,026.4,025.5,000.0,035.0,028.2,016.3,0000.0,0004.41,0016.57,0002.45
2024-04-23 08:21:00,SystemResetWarning,0827.1,4.99,000.00,026.4,025.5,000.0,034.9,028.2,016.3,0000.0,0004.38,0016.57,0002.43
2024-04-23 08:22:00,SystemResetWarning,0827.2,5.00,000.00,026.4,025.5,000.0,034.9,028.2,016.3,0000.0,0004.32,0016.40,0002.40
2024-04-23 08:23:00,SystemResetWarning,0827.3,5.00,000.00,026.4,025.5,000.0,034.9,028.1,016.2,0000.0,0004.24,0016.85,0002.37
2024-04-23 08:24:00,SystemResetWarning,0827.4,5.01,000.00,026.3,025.5,000.0,034.9,028.1,016.2,0000.0,0004.23,0017.71,0002.33
2024-04-23 08:25:00,SystemResetWarning,0827.3,5.00,000.00,026.3,025.5,000.0,034.9,028.2,015.8,0000.0,0004.25,0017.75,0002.31
2024-04-23 08:26:00,SystemResetWarning,0827.4,5.00,000.00,026.3,025.5,000.0,034.9,028.2,015.4,0000.0,0004.21,0017.45,0002.29
2024-04-23 08:27:00,SystemResetWarning,0827.3,5.00,000.00,026.3,025.5,000.0,034.9,028.1,015.2,0000.0,0004.22,0016.98,0002.27
2024-04-23 08:28:00,SystemResetWarning,0827.3,5.00,000.00,026.3,025.5,000.0,034.9,028.1,015.0,0000.0,0004.23,0016.26,0002.24
2024-04-23 08:29:00,SystemResetWarning,0827.3,4.99,000.00,026.3,025.5,000.0,034.9,028.1,014.9,0000.0,0004.23,0017.89,0002.24
2024-04-23 08:30:00,SystemResetWarning,0827.3,5.00,000.00,026.3,025.4,000.0,034.9,028.1,014.7,0000.0,0004.18,0018.42,0002.21
2024-04-23 08:31:00,SystemResetWarning,0827.4,5.00,000.00,026.3,025.4,000.0,034.9,028.1,015.1,0000.0,0004.11,0017.19,0002.18
2024-04-23 08:32:00,SystemResetWarning,0827.3,5.01,000.00,026.3,025.4,000.0,034.9,028.1,015.0,0000.0,0004.10,0016.70,0002.16
2024-04-23 08:33:00,SystemResetWarning,0827.3,5.00,000.00,026.3,025.4,000.0,034.9,028.1,014.6,0000.0,0004.05,0017.60,0002.14
2024-04-23 08:34:00,SystemResetWarning,0827.4,5.01,000.00,026.3,025.4,000.0,034.9,028.1,014.6,0000.0,0004.05,0017.47,0002.10
2024-04-23 08:35:00,SystemResetWarning,0827.4,5.00,000.00,026.3,025.4,000.0,034.9,028.1,014.8,0000.0,0004.01,0017.51,0002.07
2024-04-23 08:36:00,SystemResetWarning,0827.4,5.01,000.00,026.3,025.4,000.0,034.9,028.1,014.5,0000.0,0003.90,0017.45,0002.05
2024-04-23 08:37:00,SystemResetWarning,0827.3,5.00,000.00,026.3,025.4,000.0,034.9,028.1,014.5,0000.0,0003.87,0017.33,0002.02
2024-04-23 08:38:00,SystemResetWarning,0827.2,5.01,000.00,026.2,025.4,000.0,034.9,028.1,014.2,0000.0,0003.83,0017.33,0002.00
2024-04-23 08:39:00,SystemResetWarning,0827.2,5.00,000.00,026.2,025.3,000.0,034.9,028.0,013.8,0000.0,0003.77,0017.09,0001.99
2024-04-23 08:40:00,SystemResetWarning,0827.2,5.00,000.00,026.2,025.3,000.0,034.8,028.0,013.9,0000.0,0003.73,0015.29,0001.96
2024-04-23 08:41:00,SystemResetWarning,0827.2,4.99,000.00,026.2,025.3,000.0,034.8,028.0,013.8,0000.0,0003.69,0014.81,0001.93
2024-04-23 08:42:00,SystemResetWarning,0827.4,5.00,000.00,026.2,025.3,000.0,034.8,028.0,013.4,0000.0,0003.67,0014.21,0001.92
2024-04-23 08:43:00,SystemResetWarning,0827.4,5.00,000.00,026.2,025.3,000.0,034.8,028.0,013.3,0000.0,0003.65,0013.86,0001.90
2024-04-23 08:44:00,SystemResetWarning,0827.4,5.00,000.00,026.2,025.3,000.0,034.8,028.0,013.2,0000.0,0003.64,0012.93,0001.89
2024-04-23 08:45:00,SystemResetWarning,0827.4,5.00,000.00,026.2,025.2,000.0,034.8,028.0,013.0,0000.0,0003.61,0012.59,0001.88
2024-04-23 08:46:00,SystemResetWarning,0827.3,5.00,000.00,026.2,025.2,000.0,034.8,028.0,012.9,0000.0,0003.56,0012.06,0001.87
2024-04-23 08:47:00,SystemResetWarning,0827.3,5.00,000.00,026.2,025.2,000.0,034.8,028.0,013.2,0000.0,0003.52,0011.37,0001.85
2024-04-23 08:48:00,SystemResetWarning,0827.4,5.01,000.00,026.1,025.2,000.0,034.8,028.0,013.3,0000.0,0003.49,0011.42,0001.82
2024-04-23 08:49:00,SystemResetWarning,0827.4,5.01,000.00,026.1,025.2,000.0,034.8,028.0,012.9,0000.0,0003.44,0011.98,0001.80
2024-04-23 08:50:00,SystemResetWarning,0827.4,5.00,000.00,026.1,025.2,000.0,034.8,028.0,012.7,0000.0,0003.41,0012.10,0001.78
2024-04-23 08:51:00,SystemResetWarning,0827.6,5.00,000.00,026.1,025.2,000.0,034.8,028.0,012.6,0000.0,0003.37,0012.06,0001.77
2024-04-23 08:52:00,SystemResetWarning,0827.6,4.99,000.00,026.1,025.2,000.0,034.8,028.0,012.6,0000.0,0003.37,0011.91,0001.76
2024-04-23 08:53:00,SystemResetWarning,0827.5,4.99,000.00,026.1,025.2,000.0,034.8,028.0,012.7,0000.0,0003.40,0012.09,0001.76
2024-04-23 08:54:00,SystemResetWarning,0827.6,5.00,000.00,026.1,025.2,000.0,034.8,028.0,012.4,0000.0,0003.37,0012.25,0001.75
2024-04-23 08:55:00,SystemResetWarning,0827.5,5.00,000.00,026.1,025.2,000.0,034.8,027.9,012.5,0000.0,0003.33,0012.40,0001.73
2024-04-23 08:56:00,SystemResetWarning,0827.6,5.00,000.00,026.1,025.2,000.0,034.8,027.9,012.4,0000.0,0003.33,0012.97,0001.71
2024-04-23 08:57:00,SystemResetWarning,0827.7,5.01,000.00,026.1,025.2,000.0,034.7,027.9,012.7,0000.0,0003.33,0012.82,0001.69
2024-04-23 08:58:00,SystemResetWarning,0827.8,5.00,000.00,026.1,025.2,000.0,034.7,027.9,012.7,0000.0,0003.37,0013.27,0001.69
2024-04-23 08:59:00,SystemResetWarning,0827.8,5.00,000.00,026.1,025.2,000.0,034.7,027.9,012.6,0000.0,0003.41,0013.42,0001.69
